S57D-6 Weather Reports


Display with metric or nautical units.
time (UTC)temp
F
wind
direction
speed
MPH
gust
MPH
rain 1hr
in
rain 24hr
in
rain mn
in
humidity
%
barometer
mb
20260506151311 60 135 0.0 0.0 0.02 0.10 0.00 87 1009.7
20260506150807 60 247 0.0 0.0 0.02 0.10 0.00 87 1009.8
20260506150308 59 157 0.0 0.0 0.02 0.10 0.00 87 1009.7
20260506145806 59 0 0.0 0.0 0.02 0.10 0.00 87 1009.8
20260506145307 59 112 0.0 0.0 0.02 0.10 0.00 87 1009.8
20260506144806 59 45 0.0 0.0 0.02 0.10 0.00 87 1009.8
20260506144306 59 315 0.0 0.0 0.02 0.10 0.00 87 1009.8
20260506143805 59 45 0.0 0.0 0.02 0.10 0.00 87 1009.8
20260506143306 59 292 0.0 0.0 0.02 0.10 0.00 87 1009.9
20260506142805 59 225 0.0 0.0 0.02 0.10 0.00 87 1009.8
20260506142306 59 292 0.0 0.0 0.02 0.10 0.00 87 1009.8
20260506141804 59 225 0.0 0.0 0.00 0.08 0.00 87 1009.9
20260506141305 59 292 0.0 0.0 0.00 0.08 0.00 87 1009.9
20260506140803 60 247 0.0 0.0 0.00 0.08 0.00 87 1009.9
20260506135803 60 180 0.0 0.0 0.00 0.08 0.00 86 1010.0
20260506135306 60 292 0.0 0.0 0.00 0.08 0.00 86 1010.0
20260506134802 61 315 0.0 3.0 0.00 0.08 0.00 86 1010.2
20260506134303 61 315 3.0 3.0 0.00 0.08 0.00 86 1010.4
20260506133802 61 315 0.0 1.0 0.00 0.08 0.00 86 1010.3
20260506133302 61 315 1.0 1.0 0.00 0.08 0.00 86 1010.4
20260506132801 61 45 0.0 0.0 0.00 0.08 0.00 87 1010.4
20260506132302 61 337 0.0 2.0 0.00 0.08 0.00 87 1010.4
20260506131801 61 292 0.0 2.0 0.00 0.08 0.00 87 1010.4
20260506131301 61 0 0.0 0.0 0.00 0.08 0.00 87 1010.4
20260506130800 61 292 0.0 0.0 0.00 0.08 0.00 87 1010.3
20260506130301 60 292 0.0 0.0 0.00 0.08 0.00 87 1010.4
20260506125759 60 135 0.0 0.0 0.00 0.08 0.00 87 1010.4
20260506124759 60 22 0.0 0.0 0.00 0.08 0.00 87 1010.5
20260506124300 60 315 0.0 0.0 0.00 0.08 0.00 87 1010.5
20260506123758 60 315 0.0 0.0 0.00 0.08 0.00 87 1010.6
20260506123259 60 0 0.0 0.0 0.00 0.08 0.00 87 1010.6
20260506122758 60 270 0.0 0.0 0.00 0.08 0.00 87 1010.7
20260506122258 60 0 0.0 0.0 0.00 0.08 0.00 87 1010.5
20260506121757 60 292 0.0 0.0 0.00 0.08 0.00 87 1010.7
20260506121258 60 45 0.0 0.0 0.00 0.08 0.00 87 1010.6
20260506120757 60 180 0.0 0.0 0.00 0.08 0.00 87 1010.5
20260506120259 59 292 0.0 0.0 0.00 0.08 0.00 87 1010.5
20260506115756 59 315 0.0 0.0 0.00 0.08 0.00 87 1010.5
20260506114755 59 270 0.0 0.0 0.00 0.08 0.00 87 1010.6
20260506113755 59 225 0.0 0.0 0.00 0.08 0.00 87 1010.6
20260506112754 59 292 0.0 0.0 0.00 0.08 0.00 87 1010.8
20260506111754 59 315 1.0 1.0 0.00 0.08 0.00 87 1010.8
20260506111254 60 67 0.0 0.0 0.00 0.08 0.00 87 1010.8
20260506110753 60 292 0.0 0.0 0.00 0.08 0.00 87 1010.9
20260506110254 59 292 0.0 0.0 0.02 0.08 0.00 87 1010.9
20260506105753 60 292 0.0 0.0 0.02 0.08 0.00 87 1011.0
20260506105255 60 67 0.0 0.0 0.02 0.08 0.00 87 1010.9
20260506104752 59 315 0.0 0.0 0.02 0.08 0.00 87 1011.0
20260506103751 60 270 0.0 0.0 0.04 0.08 0.00 87 1011.2
20260506103255 60 180 0.0 0.0 0.04 0.08 0.00 87 1011.2
20260506102751 60 337 0.0 0.0 0.04 0.08 0.00 87 1011.2
20260506102255 60 337 0.0 0.0 0.04 0.08 0.00 87 1011.1
20260506101750 60 315 0.0 0.0 0.04 0.08 0.00 87 1011.1
20260506100750 60 225 0.0 2.0 0.02 0.06 0.00 86 1011.3
20260506095749 60 315 0.0 0.0 0.06 0.06 0.00 85 1011.4
20260506095250 61 270 0.0 0.0 0.06 0.06 0.00 85 1011.4
20260506094749 61 315 0.0 0.0 0.06 0.06 0.00 84 1011.4
20260506094249 61 315 0.0 0.0 0.04 0.04 0.00 84 1011.4
20260506093748 61 225 0.0 0.0 0.04 0.04 0.00 85 1011.4
20260506093249 61 292 0.0 0.0 0.04 0.04 0.00 84 1011.4
20260506092748 61 225 0.0 0.0 0.04 0.04 0.00 84 1011.5
20260506091747 61 225 1.0 1.0 0.04 0.04 0.00 85 1011.5
20260506091248 61 67 0.0 0.0 0.04 0.04 0.00 85 1011.5
20260506090746 60 157 0.0 0.0 0.04 0.04 0.00 85 1011.4
20260506090247 60 112 0.0 0.0 0.04 0.04 0.00 84 1011.4
20260506085746 60 247 0.0 2.0 0.00 0.00 0.00 84 1011.4
20260506085249 60 225 2.0 2.0 0.00 0.00 0.00 84 1011.6
20260506084745 60 202 0.0 0.0 0.00 0.00 0.00 83 1011.5
20260506084246 61 180 0.0 0.0 0.00 0.00 0.00 83 1011.5
20260506083745 61 180 0.0 0.0 0.00 0.00 0.00 83 1011.4
20260506083245 61 135 0.0 0.0 0.00 0.00 0.00 83 1011.2
20260506082744 61 135 0.0 0.0 0.00 0.00 0.00 83 1011.1
20260506082245 61 112 0.0 0.0 0.00 0.00 0.00 83 1011.2
20260506081744 61 0 0.0 0.0 0.00 0.00 0.00 83 1011.1
20260506080743 61 180 0.0 1.0 0.00 0.00 0.00 82 1010.9
20260506080244 61 135 0.0 0.0 0.00 0.00 0.00 83 1010.9
20260506073242 60 90 0.0 0.0 0.00 0.00 0.00 84 1010.8
20260506072741 60 225 0.0 0.0 0.00 0.00 0.00 85 1010.9
20260506072241 60 225 0.0 1.0 0.00 0.00 0.00 86 1010.9
20260506071740 59 112 1.0 1.0 0.00 0.00 0.00 87 1011.0
20260506070740 57 135 0.0 0.0 0.00 0.00 0.00 89 1011.1
20260506070241 57 202 0.0 0.0 0.00 0.00 0.00 89 1011.3
20260506062240 55 22 0.0 0.0 0.00 0.00 0.00 89 1011.0
20260506061737 55 22 0.0 0.0 0.00 0.00 0.00 88 1011.0
20260506061237 55 22 0.0 0.0 0.00 0.00 0.00 88 1010.9
20260506060736 55 202 0.0 1.0 0.00 0.00 0.00 88 1010.9
20260506060237 55 225 1.0 1.0 0.00 0.00 0.00 88 1010.9
20260506051234 51 225 0.0 0.0 0.00 0.00 0.00 88 1010.9
20260506050733 51 22 0.0 0.0 0.00 0.00 0.00 88 1010.7
20260506050234 51 22 0.0 0.0 0.00 0.00 0.00 88 1010.9
20260506044732 51 22 0.0 0.0 0.00 0.00 0.00 88 1010.9
20260506044234 51 22 0.0 0.0 0.00 0.00 0.00 88 1010.8
20260506043630 51 0 0.0 0.0 0.00 0.00 0.00 88 1010.8
20260506042630 52 0 0.0 0.0 0.00 0.00 0.00 87 1010.9
20260506041629 52 22 0.0 0.0 0.00 0.00 0.00 86 1010.8
20260506041130 52 22 0.0 0.0 0.00 0.00 0.00 86 1010.8
20260506040628 52 22 0.0 0.0 0.00 0.00 0.00 86 1010.8
20260506040131 53 22 0.0 0.0 0.00 0.00 0.00 86 1010.9
20260506035628 53 22 0.0 0.0 0.00 0.00 0.00 85 1010.9
20260506034627 54 22 0.0 0.0 0.00 0.00 0.00 85 1010.8
20260506034128 55 225 0.0 0.0 0.00 0.00 0.00 85 1010.9
20260506033627 55 225 0.0 0.0 0.00 0.00 0.00 85 1010.9
20260506032626 55 157 1.0 1.0 0.00 0.00 0.00 85 1010.9
20260506031626 55 202 2.0 2.0 0.00 0.00 0.00 85 1010.8
20260506030625 56 225 0.0 0.0 0.00 0.00 0.00 85 1010.9
20260506030126 56 247 0.0 0.0 0.00 0.00 0.00 84 1010.9
20260506025624 56 247 0.0 0.0 0.00 0.00 0.00 84 1011.0
20260506024122 56 315 0.0 0.0 0.00 0.00 0.00 84 1011.0
20260506023626 56 247 0.0 2.0 0.00 0.00 0.00 84 1011.1
20260506023122 56 180 2.0 2.0 0.00 0.00 0.00 84 1011.2
20260506022121 56 247 0.0 0.0 0.00 0.00 0.00 84 1011.3
20260506021622 56 247 0.0 0.0 0.00 0.00 0.00 84 1011.4
20260506021120 57 202 0.0 0.0 0.00 0.00 0.00 84 1011.4
20260506020120 57 202 0.0 0.0 0.00 0.00 0.00 84 1011.5
20260506015621 57 202 0.0 0.0 0.00 0.00 0.00 84 1011.4
20260506015119 57 202 0.0 0.0 0.00 0.00 0.00 84 1011.4
20260506014623 57 292 0.0 0.0 0.00 0.00 0.00 84 1011.3
20260506014119 57 292 0.0 0.0 0.00 0.00 0.00 84 1011.3
20260506013619 57 247 0.0 0.0 0.00 0.00 0.00 84 1011.2
20260506012917 57 270 0.0 2.0 0.00 0.00 0.00 84 1011.1
20260506012417 56 292 0.0 2.0 0.00 0.00 0.00 84 1011.1
20260506011916 56 247 2.0 2.0 0.00 0.00 0.00 84 1011.1
20260506011418 56 225 0.0 0.0 0.00 0.00 0.00 84 1011.2
20260506010916 56 180 0.0 3.0 0.00 0.00 0.00 84 1011.0
20260506010416 56 247 3.0 3.0 0.00 0.00 0.00 84 1011.0
20260506005915 56 270 0.0 0.0 0.00 0.00 0.00 84 1011.0
20260506005416 56 202 0.0 0.0 0.00 0.00 0.00 84 1011.1
20260506004914 56 202 0.0 2.0 0.00 0.00 0.00 84 1011.0
20260506004415 55 180 0.0 0.0 0.00 0.00 0.00 84 1011.0
20260506003914 55 202 0.0 0.0 0.00 0.00 0.00 84 1011.1
20260506003415 55 292 0.0 2.0 0.00 0.00 0.00 84 1010.9
20260506002913 55 270 2.0 2.0 0.00 0.00 0.00 84 1011.1
20260506002414 55 225 0.0 0.0 0.00 0.00 0.00 83 1011.2
20260506001913 55 225 0.0 0.0 0.00 0.00 0.00 83 1011.1
20260506001413 55 135 0.0 0.0 0.00 0.00 0.00 83 1011.1
20260506000912 55 247 0.0 0.0 0.00 0.00 0.00 83 1011.2
20260506000413 55 202 0.0 0.0 0.00 0.00 0.00 83 1011.3
20260505235912 55 202 0.0 0.0 0.00 0.00 0.00 83 1011.3
20260505235412 55 202 0.0 0.0 0.00 0.00 0.00 83 1011.4
20260505234911 56 202 0.0 0.0 0.00 0.00 0.00 83 1011.5
20260505234412 56 292 0.0 0.0 0.00 0.00 0.00 82 1011.7
20260505233910 56 0 0.0 0.0 0.00 0.00 0.00 82 1011.7
20260505233411 56 157 0.0 0.0 0.00 0.00 0.00 82 1011.6
20260505232910 56 22 0.0 2.0 0.00 0.00 0.00 82 1011.6
20260505231909 56 22 0.0 0.0 0.00 0.00 0.00 82 1011.7
20260505231410 56 292 0.0 0.0 0.00 0.00 0.00 81 1011.7
20260505230909 56 315 0.0 2.0 0.00 0.00 0.00 81 1011.7
20260505230409 57 202 2.0 2.0 0.00 0.00 0.00 81 1011.7
20260505225908 57 315 1.0 3.0 0.00 0.00 0.00 81 1011.7
20260505224908 57 315 0.0 2.0 0.00 0.00 0.00 81 1011.9
20260505224408 57 270 2.0 2.0 0.00 0.00 0.00 81 1011.9
20260505223907 57 202 2.0 2.0 0.00 0.00 0.00 81 1012.0
20260505223409 57 292 0.0 7.0 0.00 0.00 0.00 81 1012.0
20260505222906 57 292 7.0 7.0 0.00 0.00 0.00 81 1012.1
20260505222407 57 270 0.0 0.0 0.00 0.00 0.00 81 1012.1
20260505221906 57 180 0.0 0.0 0.00 0.00 0.00 81 1012.0
20260505221407 57 292 0.0 1.0 0.00 0.00 0.00 81 1012.1
20260505220905 57 315 1.0 1.0 0.00 0.00 0.00 81 1012.1
20260505220406 57 292 0.0 1.0 0.00 0.00 0.00 81 1012.1
20260505215905 57 292 1.0 4.0 0.00 0.00 0.00 81 1012.0
20260505215405 57 292 4.0 4.0 0.00 0.00 0.00 81 1012.1
20260505214904 57 270 0.0 2.0 0.00 0.00 0.00 81 1012.1
20260505214405 57 247 1.0 1.0 0.00 0.00 0.00 81 1012.2
20260505213904 57 292 0.0 3.0 0.00 0.00 0.00 81 1012.2
20260505213404 57 225 3.0 3.0 0.00 0.00 0.00 81 1012.2
20260505212903 57 180 3.0 3.0 0.00 0.00 0.00 81 1012.3
20260505211903 57 247 0.0 1.0 0.00 0.00 0.00 81 1012.3
20260505211403 57 202 1.0 1.0 0.00 0.00 0.00 81 1012.2
20260505210902 57 292 0.0 4.0 0.00 0.00 0.00 82 1012.2
20260505210403 57 337 0.0 1.0 0.00 0.00 0.00 82 1012.4
20260505205901 57 270 0.0 0.0 0.00 0.00 0.00 82 1012.3
20260505205402 57 247 0.0 2.0 0.00 0.00 0.00 82 1012.4
20260505204901 57 315 0.0 2.0 0.00 0.00 0.00 82 1012.3
20260505204401 57 292 0.0 0.0 0.00 0.00 0.00 82 1012.2
20260505203900 57 202 0.0 0.0 0.00 0.00 0.00 83 1012.3
20260505203401 57 337 0.0 0.0 0.00 0.00 0.00 82 1012.3
20260505202900 57 135 0.0 0.0 0.00 0.00 0.00 82 1012.3
20260505201859 57 315 0.0 0.0 0.00 0.00 0.00 83 1012.4
20260505201400 57 315 0.0 0.0 0.00 0.00 0.00 82 1012.4
20260505200858 57 247 0.0 0.0 0.00 0.00 0.00 82 1012.3
20260505200359 57 337 0.0 3.0 0.00 0.00 0.00 82 1012.4
20260505195922 57 315 0.0 1.0 0.00 0.00 0.00 82 1012.3
20260505195359 57 292 0.0 0.0 0.00 0.00 0.00 82 1012.3
20260505194857 57 292 0.0 0.0 0.00 0.00 0.00 83 1012.2
20260505194405 57 270 0.0 1.0 0.00 0.00 0.00 83 1012.2
20260505193857 57 225 1.0 1.0 0.00 0.00 0.00 83 1012.2
20260505193357 57 292 0.0 0.0 0.00 0.00 0.00 83 1012.1
20260505192555 57 270 0.0 0.0 0.00 0.00 0.00 83 1012.1
20260505191555 57 292 0.0 0.0 0.00 0.00 0.00 83 1012.1
20260505191056 57 315 0.0 0.0 0.00 0.00 0.00 83 1011.9
20260505190554 57 292 0.0 0.0 0.00 0.00 0.00 83 1012.0
20260505190055 57 292 0.0 0.0 0.00 0.00 0.00 84 1011.9
20260505184752 57 0 0.0 0.0 0.00 0.00 0.00 83 1011.8
20260505183751 57 337 0.0 0.0 0.00 0.00 0.00 83 1011.6
20260505182751 57 292 1.0 1.0 0.00 0.00 0.00 83 1011.8
20260505182251 57 157 0.0 0.0 0.00 0.00 0.00 83 1011.7
20260505181750 57 292 0.0 0.0 0.00 0.00 0.00 83 1011.8
20260505181252 57 270 0.0 0.0 0.00 0.00 0.00 83 1011.9
20260505180749 57 270 0.0 0.0 0.00 0.00 0.00 83 1011.8
20260505180250 57 315 0.0 0.0 0.00 0.00 0.00 83 1011.8
20260505175749 57 315 0.0 0.0 0.00 0.00 0.00 83 1011.8
20260505175249 57 270 0.0 0.0 0.00 0.00 0.00 83 1011.9
20260505174748 57 315 0.0 0.0 0.00 0.00 0.00 83 1011.7
20260505174249 57 292 0.0 0.0 0.00 0.00 0.00 83 1011.8
20260505173748 57 270 0.0 0.0 0.00 0.00 0.00 83 1011.9
20260505172747 57 225 0.0 0.0 0.00 0.00 0.00 83 1011.8
20260505172248 57 292 0.0 0.0 0.00 0.00 0.00 82 1011.9
20260505171747 57 45 0.0 0.0 0.00 0.00 0.00 82 1011.9
20260505171247 57 292 0.0 2.0 0.00 0.00 0.00 82 1011.9
20260505170746 57 292 0.0 0.0 0.00 0.00 0.00 81 1012.0
20260505170247 57 292 0.0 0.0 0.00 0.00 0.00 81 1012.0
20260505165745 57 135 0.0 2.0 0.00 0.00 0.00 80 1012.0
20260505165246 58 292 2.0 2.0 0.00 0.00 0.00 80 1012.0
20260505164745 58 0 0.0 1.0 0.00 0.00 0.00 79 1011.9
20260505164245 58 292 0.0 0.0 0.00 0.00 0.00 79 1012.0
20260505163744 58 292 0.0 3.0 0.00 0.00 0.00 78 1012.0
20260505163245 58 292 3.0 3.0 0.00 0.00 0.00 77 1011.9
20260505162744 58 270 1.0 5.0 0.00 0.00 0.00 77 1012.0
20260505161743 58 270 0.0 2.0 0.00 0.00 0.00 76 1012.1
20260505161244 58 292 0.0 4.0 0.00 0.00 0.00 76 1012.2
20260505160743 59 247 1.0 1.0 0.00 0.00 0.00 74 1012.3
20260505160243 59 247 0.0 0.0 0.00 0.00 0.00 74 1012.3
20260505153241 61 292 0.0 1.0 0.00 0.00 0.00 68 1012.2
20260505152740 60 157 0.0 2.0 0.00 0.00 0.00 68 1012.2
20260505152245 61 292 2.0 2.0 0.00 0.00 0.00 68 1012.2
20260505151740 61 292 0.0 0.0 0.00 0.00 0.00 68 1012.2